Back to catalog

STARLINK-30760

AliveCommunicationsVLEO
NORAD 58187·PAYLOAD·🇺🇸 United States

Launched Oct 30, 2023 from Cape Canaveral Space Force Station

Loading…

Next Passes (next 24 hours)

TLE

FreshSource: CelesTrak SupGP

Epoch: Sep 14, 2026, 22:10 UTC

1 58187C 23167N   26257.92409722 -.00055242  00000+0 -20012-2 0  2578
2 58187  43.0022 154.7562 0001317 269.5716 154.9725 15.27600528    10

Track STARLINK-30760 in real time with AllMySat

Download on the App Store